sat.trackr.live / text

‹ back to catalog

TJS-4

NORAD 44637 · 2019-070A

PAYLOAD ACTIVE UNKNOWN

§ Identity

Operator
Country
PRC
Launch date
2019-10-17
Launch site
XICLF
Launch vehicle
Mass (kg)
RCS (m²)

Purposes: comms

External: N2YO · Heavens-Above · Gunter

§ Orbital elements

Epoch: 2026-05-25T04:08:07.508832Z

Period
1,436.08 min
Inclination
0.0459°
Eccentricity
0.0005397
Mean motion
1.00272734 rev/d
Perigee alt
35,763.6 km
Apogee alt
35,809.1 km
Semi-major
42,164.5 km
B*
0.0000e+0
RAAN
268.2510°
Arg perigee
122.8580°
Mean anomaly
357.2071°
Rev number
2,430

§ Raw data

TJS-41 44637U 19070A   26145.17230913 -.00000172  00000+0  00000+0 0  99942 44637   0.0459 268.2510 0005397 122.8580 357.2071  1.00272734 24308

JSON: /api/v1/satellites/44637 · /tle

For live sub-satellite position, see the globe view (requires WebGL).

§ Visibility from observer

Set your observer location to see the next 7 days of passes ≥ 10°. The values pass through the URL so the page stays shareable.

No JS? Fill the form by hand. The geolocation button needs JavaScript.